Regional Weather Roundup
Issued by NWS

Home | Current Version | Previous Version | Graphics & Text | Print | Product List | Glossary On
Versions: 1 2 3 4 5 6 7 8 9 10 11 12 13 14 15 16 17 18 19 20 21 22 23 24 25 26 27 28 29 30 31 32 33 34 35 36 37 38 39 40 41 42 43 44 45 46 47 48 49 50
000
ASUS43 KLOT 251600
RWRIL

ILLINOIS REGIONAL WEATHER ROUNDUP
NATIONAL WEATHER SERVICE CHICAGO/ROMEOVILLE IL
1000 AM CST SUN JAN 25 2015

NOTE: "FAIR" INDICATES FEW OR NO CLOUDS BELOW 12,000 FEET WITH NO
SIGNIFICANT WEATHER AND/OR OBSTRUCTIONS TO VISIBILITY.

* THESE STATIONS ARE NOT UNDER NWS QUALITY CONTROL. THEY ALSO MAY NOT
  REPORT WEATHER SUCH AS PRECIPITATION OR FOG.

ILZ001-002-007-009-015-016-024-251700-
NORTHWEST ILLINOIS

CITY           SKY/WX    TMP DP  RH WIND       PRES   REMARKS
MOLINE         NOT AVBL
STERLING*      CLOUDY    28  25  86 NE22G30   29.77R VSB 1   WCI  15
$$

ILZ003-004-008-010-011-017-018-251700-
NORTH CENTRAL ILLINOIS

CITY           SKY/WX    TMP DP  RH WIND       PRES   REMARKS
ROCKFORD       LGT SNOW  28  22  78 NE18G25   29.83R VSB 1   WCI  15
$$

ILZ005-006-012>014-019>023-251700-
NORTHEAST ILLINOIS

CITY           SKY/WX    TMP DP  RH WIND       PRES   REMARKS
CHICAGO-OHARE  LGT SNOW  31  29  92 NE15G26   29.78R FOG     WCI  20
CHICAGO-MIDWAY LGT SNOW  34  32  92 NE21      29.77R FOG     WCI  22
AURORA         LGT SNOW  32  28  85 NE18      29.75R VSB 3/4 WCI  20
WAUKEGAN       LGT SNOW  29  25  85 NE17G24   29.83R FOG     WCI  17
DUPAGE AIRPORT LGT SNOW  31  29  92 NE17G24   29.76R FOG     WCI  19
WHEELING       LGT SNOW  30  28  92 NE17      29.82R VSB 1   WCI  18
NORTHERLY ISL    N/A     32  31  96 NE21        N/A  WCI  20
$$

LMZ740>746-251700-
SOUTHERN LAKE MICHIGAN

STATION/POSITION SKY/WX   TEMP    WIND        PRES    VSBY  WAVE
                          AIR SEA DIR/SP/G                  HT/PER
                          (F)     (DEG/KT/KT) (MB)    (MI)  (FT/S)
WAUKEGAN HARBOR            29      40/ 24/ 32   N/A
HARRISON CRIB              32      40/ 25/ 29   N/A
BURNHAM HARBOR             32      40/ 20/ 21   N/A
CALUMET HARBOR             32      30/ 18/ 21   N/A
MICHIGAN CITY              33      30/ 14/ 16   N/A
$$

ILZ025>027-034>036-040-047-049-050-058-095>099-251700-
WEST-CENTRAL ILLINOIS

CITY           SKY/WX    TMP DP  RH WIND       PRES   REMARKS
QUINCY         LGT RAIN  40  38  93 NE13      29.60R FOG
$$

ILZ028>032-037-038-041>044-048-051>054-059>061-251700-
CENTRAL ILLINOIS

CITY           SKY/WX    TMP DP  RH WIND       PRES   REMARKS
DECATUR        LGT RAIN  38  36  92 NE7       29.62S WCI  33
PEORIA         LGT SNOW  36  32  85 NE16      29.67R FOG     WCI  26
SPRINGFIELD    CLOUDY    42  39  89 NE12      29.61R
TAYLORVILLE    NOT AVBL
$$

ILZ033-039-045-046-055>057-062-063-251700-
EAST-CENTRAL ILLINOIS

CITY           SKY/WX    TMP DP  RH WIND       PRES   REMARKS
CHAMPAIGN      LGT RAIN  35  34  96 NE10      29.63S FOG     WCI  27
MATTOON        LGT RAIN  38  38 100 CALM      29.61S FOG
$$

ILZ079-100>102-251700-
SOUTHWEST ILLINOIS

CITY           SKY/WX    TMP DP  RH WIND       PRES   REMARKS
ALTON          CLOUDY    45  43  93 VRB6      29.58F
BELLEVILLE     DRIZZLE   43  42  98 SE2       29.58S
CAHOKIA*       CLOUDY    46  43  89 S5        29.58S
$$

ILZ064>066-069>071-074>076-080>082-084>086-088>090-092>094-251700-
SOUTH-CENTRAL ILLINOIS

CITY           SKY/WX    TMP DP  RH WIND       PRES   REMARKS
CARBONDALE     LGT RAIN  41  38  89 S8        29.62F FOG
MARION         LGT RAIN  43  39  87 S9        29.63F
MT. VERNON     CLOUDY    41  36  81 S6        29.62S
$$

ILZ067-068-072-073-078-083-087-091-251700-
SOUTHEAST ILLINOIS

CITY           SKY/WX    TMP DP  RH WIND       PRES   REMARKS
LAWRENCEVILLE  RAIN      40  37  89 S8        29.65S FOG
$$

ABBREVIATIONS USED IN REMARKS
   TC - TEMPERATURE IN CELSIUS
  WCI - WIND CHILL INDEX
   HX - HEAT INDEX
  VSB - VISIBILITY
$$




USA.gov is the U.S. government's official web portal to all federal, state and local government web resources and services.